VIR672 TBPB-EGLL

Flight info

Callsign VIR672
Flight time N/A
Altitude 35000
Route FISST/M082F350 DCT 19N055W 23N050W/M082F370 26N045W 29N040W 35N030W DCT GINSU DCT 41N020W/M082F390 DCT GONAN DCT ETIKI DCT REGHI/N0469F390 DCT AMPOP DCT SIDDI DCT DAWLY DCT ELRIP DCT OTMET
Aircraft A339/H-SADE1E2E3GHIJ3J5M1P2RWXY/LB2D1

Departure

Time 2026-04-30 10:06
Airport Grantley Adams International Airport (TBPB)

Arrival

Time N/A
Airport London Heathrow Airport (EGLL)
Time Latitude Longitude Altitude Speed Heading
2026-04-30 09:23 13.07882 -59.48754 181 ft 0 kts 346°
2026-04-30 09:50 13.07866 -59.48750 181 ft 4 kts 346°
2026-04-30 09:50 13.07840 -59.48744 181 ft 4 kts 346°
2026-04-30 09:50 13.07813 -59.48737 181 ft 4 kts 346°
2026-04-30 09:51 13.07792 -59.48734 181 ft 4 kts 318°
2026-04-30 09:51 13.07781 -59.48730 181 ft 4 kts 256°
2026-04-30 09:51 13.07789 -59.48704 181 ft 4 kts 250°
2026-04-30 09:51 13.07794 -59.48690 181 ft 0 kts 256°
2026-04-30 09:53 13.07793 -59.48693 181 ft 2 kts 256°
2026-04-30 09:53 13.07780 -59.48732 181 ft 9 kts 245°
2026-04-30 09:53 13.07739 -59.48801 181 ft 14 kts 245°
2026-04-30 09:54 13.07709 -59.48911 182 ft 18 kts 255°
2026-04-30 09:54 13.07673 -59.49052 182 ft 22 kts 255°
2026-04-30 09:54 13.07634 -59.49208 182 ft 22 kts 256°
2026-04-30 09:54 13.07598 -59.49360 182 ft 22 kts 256°
2026-04-30 09:55 13.07563 -59.49508 181 ft 21 kts 256°
2026-04-30 09:55 13.07529 -59.49653 181 ft 21 kts 256°
2026-04-30 09:55 13.07496 -59.49793 181 ft 20 kts 256°
2026-04-30 09:55 13.07464 -59.49930 181 ft 20 kts 255°
2026-04-30 09:56 13.07429 -59.50064 181 ft 19 kts 255°
2026-04-30 09:56 13.07396 -59.50195 181 ft 19 kts 255°
2026-04-30 09:56 13.07363 -59.50323 181 ft 18 kts 255°
2026-04-30 09:56 13.07331 -59.50447 182 ft 18 kts 255°
2026-04-30 09:57 13.07312 -59.50521 181 ft 0 kts 255°
2026-04-30 10:02 13.07310 -59.50528 181 ft 2 kts 255°
2026-04-30 10:02 13.07306 -59.50542 181 ft 3 kts 255°
2026-04-30 10:02 13.07300 -59.50565 181 ft 4 kts 255°
2026-04-30 10:02 13.07292 -59.50596 181 ft 5 kts 255°
2026-04-30 10:03 13.07283 -59.50634 181 ft 6 kts 255°
2026-04-30 10:03 13.07271 -59.50680 181 ft 7 kts 255°
2026-04-30 10:03 13.07241 -59.50718 181 ft 7 kts 213°
2026-04-30 10:03 13.07193 -59.50721 181 ft 7 kts 178°
2026-04-30 10:04 13.07144 -59.50712 181 ft 7 kts 156°
2026-04-30 10:04 13.07119 -59.50675 181 ft 6 kts 105°
2026-04-30 10:04 13.07121 -59.50627 181 ft 10 kts 84°
2026-04-30 10:04 13.07149 -59.50500 182 ft 33 kts 76°
2026-04-30 10:05 13.07258 -59.50069 183 ft 93 kts 75°
2026-04-30 10:05 13.07462 -59.49247 181 ft 143 kts 76°
2026-04-30 10:05 13.07735 -59.48133 182 ft 177 kts 76°
2026-04-30 10:05 13.08025 -59.46927 459 ft 182 kts 76°
2026-04-30 10:06 13.08321 -59.45690 1064 ft 177 kts 76°
2026-04-30 10:06 13.08644 -59.44467 1517 ft 180 kts 69°
2026-04-30 10:06 13.09335 -59.43425 1923 ft 183 kts 44°
2026-04-30 10:06 13.10416 -59.42643 2167 ft 199 kts 33°
2026-04-30 10:07 13.11620 -59.41886 2613 ft 204 kts 33°
2026-04-30 10:07 13.12862 -59.41095 3009 ft 219 kts 34°
2026-04-30 10:07 13.14200 -59.40215 3261 ft 238 kts 36°
2026-04-30 10:07 13.15165 -59.39570 3403 ft 252 kts 36°
2026-04-30 10:08 13.17169 -59.38210 3903 ft 265 kts 36°
2026-04-30 10:08 13.18210 -59.37500 4267 ft 266 kts 36°
2026-04-30 10:08 13.19758 -59.36442 4828 ft 269 kts 36°
2026-04-30 10:08 13.21326 -59.35366 5363 ft 272 kts 36°
2026-04-30 10:09 13.22899 -59.34283 5916 ft 274 kts 36°
2026-04-30 10:09 13.24490 -59.33190 6436 ft 276 kts 36°
2026-04-30 10:09 13.26095 -59.32088 6975 ft 279 kts 36°
2026-04-30 10:09 13.27719 -59.30973 7463 ft 282 kts 36°
2026-04-30 10:10 13.29354 -59.29851 7972 ft 284 kts 36°
2026-04-30 10:10 13.31006 -59.28716 8440 ft 287 kts 36°
2026-04-30 10:10 13.32671 -59.27573 8899 ft 290 kts 36°
2026-04-30 10:10 13.34354 -59.26417 9351 ft 292 kts 36°
2026-04-30 10:11 13.36048 -59.25252 9838 ft 294 kts 36°
2026-04-30 10:11 13.37747 -59.24086 10319 ft 295 kts 36°
2026-04-30 10:11 13.39475 -59.22899 10565 ft 305 kts 36°
2026-04-30 10:11 13.41283 -59.21658 10704 ft 319 kts 36°
2026-04-30 10:12 13.43165 -59.20368 10823 ft 332 kts 36°
2026-04-30 10:12 13.45119 -59.19030 10960 ft 344 kts 36°
2026-04-30 10:12 13.47130 -59.17656 11310 ft 348 kts 35°
2026-04-30 10:12 13.49151 -59.16275 11761 ft 349 kts 36°
2026-04-30 10:13 13.51174 -59.14892 12188 ft 351 kts 36°
2026-04-30 10:13 13.53210 -59.13500 12599 ft 352 kts 36°
2026-04-30 10:13 13.55257 -59.12098 12958 ft 356 kts 36°
2026-04-30 10:13 13.57323 -59.10681 13328 ft 358 kts 36°
2026-04-30 10:14 13.59406 -59.09253 13680 ft 361 kts 36°
2026-04-30 10:14 13.61475 -59.07833 14034 ft 364 kts 36°
2026-04-30 10:14 13.65745 -59.04906 14749 ft 369 kts 36°
2026-04-30 10:15 13.67891 -59.03433 15099 ft 372 kts 35°
2026-04-30 10:15 13.70050 -59.01954 15434 ft 375 kts 35°
2026-04-30 10:15 13.72229 -59.00460 15764 ft 377 kts 35°
2026-04-30 10:15 13.74419 -58.98959 16095 ft 380 kts 35°
2026-04-30 10:16 13.76624 -58.97448 16409 ft 382 kts 35°
2026-04-30 10:16 13.78846 -58.95923 16731 ft 385 kts 35°
2026-04-30 10:16 13.81079 -58.94387 17036 ft 387 kts 35°
2026-04-30 10:17 13.85584 -58.91299 17628 ft 392 kts 35°
2026-04-30 10:17 13.90148 -58.88167 18233 ft 397 kts 35°
2026-04-30 10:17 13.92453 -58.86586 18540 ft 399 kts 35°
2026-04-30 10:18 13.94769 -58.84997 18841 ft 402 kts 35°
2026-04-30 10:18 13.97100 -58.83395 19154 ft 403 kts 35°
2026-04-30 10:18 13.99439 -58.81789 19464 ft 405 kts 35°
2026-04-30 10:19 14.04164 -58.78541 19996 ft 411 kts 35°
2026-04-30 10:19 14.06550 -58.76898 20307 ft 413 kts 35°
2026-04-30 10:19 14.08945 -58.75251 20608 ft 415 kts 35°
2026-04-30 10:19 14.11348 -58.73598 20869 ft 417 kts 35°
2026-04-30 10:20 14.13772 -58.71931 21152 ft 419 kts 35°
2026-04-30 10:20 14.18642 -58.68580 21742 ft 423 kts 35°
2026-04-30 10:20 14.21099 -58.66889 22001 ft 426 kts 35°
2026-04-30 10:21 14.23565 -58.65191 22299 ft 427 kts 35°
2026-04-30 10:21 14.26044 -58.63483 22585 ft 429 kts 35°
2026-04-30 10:21 14.28532 -58.61769 22862 ft 431 kts 35°
2026-04-30 10:21 14.31036 -58.60043 23106 ft 434 kts 35°
2026-04-30 10:22 14.33553 -58.58309 23402 ft 435 kts 35°
2026-04-30 10:22 14.36075 -58.56570 23679 ft 437 kts 35°
2026-04-30 10:22 14.38613 -58.54820 23914 ft 440 kts 35°
2026-04-30 10:22 14.40889 -58.53250 24162 ft 442 kts 35°
2026-04-30 10:23 14.43658 -58.51340 24452 ft 443 kts 35°
2026-04-30 10:23 14.46294 -58.49520 24699 ft 446 kts 35°
2026-04-30 10:23 14.48882 -58.47730 24949 ft 448 kts 35°
2026-04-30 10:23 14.51477 -58.45935 25184 ft 451 kts 35°
2026-04-30 10:24 14.54088 -58.44130 25456 ft 452 kts 34°
2026-04-30 10:24 14.56704 -58.42321 25706 ft 454 kts 34°
2026-04-30 10:24 14.59295 -58.40528 25923 ft 456 kts 34°
2026-04-30 10:24 14.62003 -58.38653 26193 ft 457 kts 34°
2026-04-30 10:25 14.64619 -58.36841 26415 ft 459 kts 34°
2026-04-30 10:25 14.67308 -58.34978 26655 ft 461 kts 34°
2026-04-30 10:25 14.69972 -58.33132 26883 ft 463 kts 34°
2026-04-30 10:25 14.72691 -58.31249 27093 ft 465 kts 34°
2026-04-30 10:26 14.75383 -58.29383 27310 ft 467 kts 34°
2026-04-30 10:26 14.78085 -58.27508 27555 ft 468 kts 34°
2026-04-30 10:26 14.80791 -58.25631 27781 ft 470 kts 34°
2026-04-30 10:26 14.83512 -58.23743 27988 ft 472 kts 34°
2026-04-30 10:27 14.86281 -58.21821 28197 ft 474 kts 34°
2026-04-30 10:27 14.89099 -58.19865 28413 ft 476 kts 33°
2026-04-30 10:27 14.91852 -58.17955 28632 ft 477 kts 33°
2026-04-30 10:27 14.94611 -58.16039 28861 ft 478 kts 33°
2026-04-30 10:28 14.97382 -58.14113 29033 ft 481 kts 33°
2026-04-30 10:28 15.00131 -58.12202 29256 ft 482 kts 33°
2026-04-30 10:28 15.02955 -58.10238 29467 ft 484 kts 33°
2026-04-30 10:28 15.05756 -58.08290 29670 ft 486 kts 33°
2026-04-30 10:29 15.08566 -58.06335 29868 ft 488 kts 33°
2026-04-30 10:29 15.11308 -58.04426 30060 ft 490 kts 33°
2026-04-30 10:29 15.14216 -58.02403 30298 ft 491 kts 33°
2026-04-30 10:29 15.17085 -58.00407 30564 ft 491 kts 32°
2026-04-30 10:30 15.19935 -57.98422 30753 ft 494 kts 32°
2026-04-30 10:30 15.22789 -57.96434 31013 ft 495 kts 32°
2026-04-30 10:30 15.25685 -57.94415 31285 ft 495 kts 32°
2026-04-30 10:30 15.28555 -57.92410 31507 ft 497 kts 32°
2026-04-30 10:31 15.31426 -57.90404 31753 ft 498 kts 32°
2026-04-30 10:31 15.34302 -57.88396 31989 ft 499 kts 31°
2026-04-30 10:31 15.37176 -57.86392 32228 ft 500 kts 31°
2026-04-30 10:31 15.39100 -57.85052 32344 ft 500 kts 31°
2026-04-30 10:32 15.42345 -57.82790 32567 ft 501 kts 31°
2026-04-30 10:32 15.44261 -57.81452 32662 ft 502 kts 31°
2026-04-30 10:32 15.48137 -57.78742 32856 ft 503 kts 31°
2026-04-30 10:32 15.51037 -57.76712 33016 ft 503 kts 31°
2026-04-30 10:33 15.53933 -57.74684 33151 ft 503 kts 31°
2026-04-30 10:33 15.56836 -57.72651 33267 ft 504 kts 30°
2026-04-30 10:33 15.62653 -57.68582 33448 ft 504 kts 30°
2026-04-30 10:34 15.65403 -57.66657 33561 ft 504 kts 30°
2026-04-30 10:34 15.67522 -57.65172 33665 ft 503 kts 30°
2026-04-30 10:34 15.70396 -57.63152 33793 ft 503 kts 30°
2026-04-30 10:34 15.73295 -57.61119 33915 ft 502 kts 30°
2026-04-30 10:35 15.76190 -57.59092 34063 ft 501 kts 30°
2026-04-30 10:35 15.79079 -57.57070 34160 ft 501 kts 30°
2026-04-30 10:35 15.84857 -57.53025 34365 ft 501 kts 29°
2026-04-30 10:36 15.87793 -57.50963 34472 ft 501 kts 29°
2026-04-30 10:36 15.90679 -57.48938 34586 ft 500 kts 29°
2026-04-30 10:36 15.96448 -57.44889 34778 ft 500 kts 29°
2026-04-30 10:37 15.99332 -57.42864 34885 ft 500 kts 29°
2026-04-30 10:37 16.02259 -57.40809 34951 ft 499 kts 29°
2026-04-30 10:37 16.08099 -57.36702 34950 ft 502 kts 29°
2026-04-30 10:38 16.13880 -57.32634 34951 ft 502 kts 29°
2026-04-30 10:38 16.19710 -57.28536 34950 ft 502 kts 29°
2026-04-30 10:39 16.25503 -57.24458 34951 ft 503 kts 29°
2026-04-30 10:39 16.31262 -57.20399 34951 ft 503 kts 29°
2026-04-30 10:40 16.37094 -57.16284 34959 ft 504 kts 29°
2026-04-30 10:40 16.42903 -57.12180 34956 ft 504 kts 29°
2026-04-30 10:41 16.48717 -57.08071 34961 ft 505 kts 29°
2026-04-30 10:41 16.54523 -57.03962 34960 ft 505 kts 30°
2026-04-30 10:42 16.60380 -56.99819 34959 ft 505 kts 29°
2026-04-30 10:42 16.66198 -56.95699 34957 ft 505 kts 30°
2026-04-30 10:43 16.72016 -56.91575 34955 ft 506 kts 30°
2026-04-30 10:43 16.77844 -56.87442 34956 ft 506 kts 30°
2026-04-30 10:44 16.83668 -56.83308 34952 ft 507 kts 30°
2026-04-30 10:44 16.89502 -56.79164 34957 ft 507 kts 30°
2026-04-30 10:45 16.95419 -56.74955 34959 ft 507 kts 30°
2026-04-30 10:45 17.01252 -56.70801 34958 ft 507 kts 30°
2026-04-30 10:46 17.07079 -56.66647 34982 ft 507 kts 30°
2026-04-30 10:46 17.12914 -56.62492 34980 ft 508 kts 30°
2026-04-30 10:47 17.18801 -56.58290 34980 ft 508 kts 30°
2026-04-30 10:47 17.24634 -56.54122 34981 ft 509 kts 30°
2026-04-30 10:48 17.30481 -56.49948 34979 ft 509 kts 30°
2026-04-30 10:48 17.36330 -56.45765 34980 ft 509 kts 30°
2026-04-30 10:49 17.42187 -56.41571 34980 ft 510 kts 30°
2026-04-30 10:49 17.48049 -56.37372 34984 ft 511 kts 30°
2026-04-30 10:50 17.53915 -56.33169 34979 ft 511 kts 30°
2026-04-30 10:50 17.59789 -56.28953 34967 ft 512 kts 30°
2026-04-30 10:51 17.65671 -56.24729 34965 ft 512 kts 30°
2026-04-30 10:51 17.71555 -56.20503 34966 ft 513 kts 30°
2026-04-30 10:52 17.77441 -56.16271 34966 ft 513 kts 30°
2026-04-30 10:52 17.83323 -56.12039 34974 ft 512 kts 30°
2026-04-30 10:53 17.89203 -56.07805 34976 ft 513 kts 30°
2026-04-30 10:53 17.95088 -56.03564 34977 ft 513 kts 30°
2026-04-30 10:54 17.99971 -55.99925 34978 ft 515 kts 34°
2026-04-30 10:54 18.05289 -55.94816 34973 ft 519 kts 40°
2026-04-30 10:55 18.10521 -55.89518 34972 ft 519 kts 40°
2026-04-30 10:55 18.15750 -55.84283 34972 ft 519 kts 40°
2026-04-30 10:56 18.20996 -55.79063 34978 ft 519 kts 39°
2026-04-30 10:56 18.26277 -55.73817 34981 ft 519 kts 39°
2026-04-30 10:57 18.31557 -55.68565 34981 ft 519 kts 39°
2026-04-30 10:57 18.36806 -55.63332 34982 ft 519 kts 39°
2026-04-30 10:58 18.42083 -55.58067 34980 ft 519 kts 39°
2026-04-30 10:58 18.47010 -55.53152 34982 ft 519 kts 39°
2026-04-30 10:59 18.52572 -55.47595 34986 ft 519 kts 39°
2026-04-30 10:59 18.57816 -55.42350 34979 ft 519 kts 39°
2026-04-30 11:00 18.63056 -55.37107 34982 ft 519 kts 39°
2026-04-30 11:00 18.68293 -55.31859 34977 ft 520 kts 39°
2026-04-30 11:01 18.73537 -55.26599 34975 ft 520 kts 39°
2026-04-30 11:01 18.78780 -55.21335 34975 ft 520 kts 39°
2026-04-30 11:02 18.84017 -55.16074 34972 ft 520 kts 39°
2026-04-30 11:02 18.89255 -55.10800 34981 ft 520 kts 39°
2026-04-30 11:03 18.94489 -55.05530 34976 ft 520 kts 39°
2026-04-30 11:04 19.02195 -54.97432 34973 ft 523 kts 44°
2026-04-30 11:04 19.07009 -54.91659 34965 ft 524 kts 44°
2026-04-30 11:05 19.11821 -54.85864 34968 ft 524 kts 44°
2026-04-30 11:05 19.16650 -54.80066 34968 ft 525 kts 44°
2026-04-30 11:06 19.21477 -54.74265 34975 ft 525 kts 44°
2026-04-30 11:06 19.26303 -54.68460 34972 ft 526 kts 44°
2026-04-30 11:07 19.31171 -54.62598 34973 ft 526 kts 44°
2026-04-30 11:07 19.36002 -54.56778 34981 ft 526 kts 44°
2026-04-30 11:08 19.40832 -54.50952 34977 ft 527 kts 44°
2026-04-30 11:08 19.45659 -54.45117 34976 ft 527 kts 44°
2026-04-30 11:09 19.50499 -54.39267 34979 ft 527 kts 44°
2026-04-30 11:09 19.55338 -54.33413 34976 ft 528 kts 44°
2026-04-30 11:10 19.60176 -54.27555 34979 ft 528 kts 44°
2026-04-30 11:10 19.65017 -54.21687 34979 ft 529 kts 44°
2026-04-30 11:11 19.69863 -54.15808 34981 ft 529 kts 44°
2026-04-30 11:11 19.74708 -54.09924 34983 ft 529 kts 44°
2026-04-30 11:12 19.79553 -54.04033 34980 ft 530 kts 44°
2026-04-30 11:12 19.84400 -53.98136 34983 ft 530 kts 44°
2026-04-30 11:13 19.89247 -53.92230 34981 ft 530 kts 44°
2026-04-30 11:13 19.94090 -53.86326 34982 ft 530 kts 44°
2026-04-30 11:14 19.98902 -53.80453 34983 ft 530 kts 44°
2026-04-30 11:14 20.03746 -53.74539 34983 ft 530 kts 44°
2026-04-30 11:15 20.08591 -53.68615 34985 ft 530 kts 44°
2026-04-30 11:15 20.13072 -53.63126 34982 ft 531 kts 44°
2026-04-30 11:16 20.18310 -53.56704 34982 ft 531 kts 44°
2026-04-30 11:16 20.23139 -53.50781 34982 ft 531 kts 44°
2026-04-30 11:17 20.27880 -53.44954 34978 ft 531 kts 44°
2026-04-30 11:17 20.31998 -53.39891 34999 ft 531 kts 44°
2026-04-30 11:18 20.37646 -53.32939 34994 ft 531 kts 44°
2026-04-30 11:18 20.44891 -53.24017 35006 ft 531 kts 44°
2026-04-30 11:19 20.49719 -53.18059 35002 ft 531 kts 44°
2026-04-30 11:19 20.54548 -53.12091 34998 ft 531 kts 44°
2026-04-30 11:20 20.59376 -53.06121 35004 ft 531 kts 44°
2026-04-30 11:20 20.64198 -53.00148 35004 ft 531 kts 43°
2026-04-30 11:21 20.68994 -52.94205 34997 ft 531 kts 43°
2026-04-30 11:21 20.73817 -52.88224 35003 ft 531 kts 43°
2026-04-30 11:22 20.78185 -52.82800 35006 ft 531 kts 43°
2026-04-30 11:22 20.83460 -52.76244 34992 ft 531 kts 43°
2026-04-30 11:23 20.88281 -52.70245 34999 ft 532 kts 43°
2026-04-30 11:24 20.95509 -52.61237 34964 ft 532 kts 43°
2026-04-30 11:24 20.99512 -52.56240 34966 ft 532 kts 43°
2026-04-30 11:25 21.06734 -52.47215 34965 ft 532 kts 43°
2026-04-30 11:26 21.16359 -52.35166 34962 ft 532 kts 43°
2026-04-30 11:26 21.21108 -52.29214 34959 ft 532 kts 43°
2026-04-30 11:27 21.25792 -52.23342 34960 ft 533 kts 43°
2026-04-30 11:27 21.30866 -52.16965 34958 ft 533 kts 43°
2026-04-30 11:28 21.38066 -52.07902 34962 ft 534 kts 43°
2026-04-30 11:29 21.42885 -52.01828 34962 ft 535 kts 43°
2026-04-30 11:29 21.50146 -51.92666 34967 ft 535 kts 43°
2026-04-30 11:30 21.57365 -51.83549 34967 ft 535 kts 43°
2026-04-30 11:31 21.62185 -51.77457 34969 ft 535 kts 43°
2026-04-30 11:31 21.67036 -51.71314 34966 ft 536 kts 43°
2026-04-30 11:32 21.71858 -51.65201 34965 ft 536 kts 43°
2026-04-30 11:32 21.76677 -51.59082 34954 ft 536 kts 43°
2026-04-30 11:33 21.83901 -51.49896 34952 ft 536 kts 43°
2026-04-30 11:33 21.88713 -51.43768 34956 ft 536 kts 43°
2026-04-30 11:34 21.93522 -51.37637 34950 ft 536 kts 43°
2026-04-30 11:34 21.98334 -51.31500 34953 ft 536 kts 43°
2026-04-30 11:35 22.03142 -51.25359 34951 ft 536 kts 43°
2026-04-30 11:35 22.07952 -51.19208 34954 ft 537 kts 43°
2026-04-30 11:36 22.12763 -51.13045 34952 ft 537 kts 44°
2026-04-30 11:36 22.17571 -51.06880 34952 ft 537 kts 44°
2026-04-30 11:37 22.22382 -51.00710 34954 ft 538 kts 44°
2026-04-30 11:37 22.27208 -50.94513 35077 ft 540 kts 44°
2026-04-30 11:38 22.29616 -50.91414 35278 ft 538 kts 44°
2026-04-30 11:38 22.32019 -50.88317 35405 ft 538 kts 44°
2026-04-30 11:38 22.36832 -50.82115 35670 ft 538 kts 44°
2026-04-30 11:39 22.39229 -50.79022 35839 ft 537 kts 44°
2026-04-30 11:39 22.41626 -50.75928 35962 ft 537 kts 44°
2026-04-30 11:39 22.46426 -50.69730 36156 ft 538 kts 44°
2026-04-30 11:40 22.48825 -50.66629 36336 ft 537 kts 44°
2026-04-30 11:40 22.51216 -50.63536 36459 ft 536 kts 44°
2026-04-30 11:40 22.55997 -50.57341 36728 ft 534 kts 44°
2026-04-30 11:41 22.58371 -50.54262 36956 ft 531 kts 44°
2026-04-30 11:41 22.60729 -50.51200 37162 ft 528 kts 44°
2026-04-30 11:41 22.63073 -50.48151 37381 ft 526 kts 44°
2026-04-30 11:41 22.65411 -50.45112 37469 ft 526 kts 44°
2026-04-30 11:42 22.70100 -50.39024 37679 ft 525 kts 44°
2026-04-30 11:42 22.74770 -50.32945 37835 ft 526 kts 44°
2026-04-30 11:43 22.79451 -50.26856 38027 ft 525 kts 44°
2026-04-30 11:43 22.84116 -50.20774 38184 ft 525 kts 44°
2026-04-30 11:44 22.88787 -50.14679 38324 ft 526 kts 44°
2026-04-30 11:44 22.93461 -50.08581 38460 ft 526 kts 44°
2026-04-30 11:45 22.98132 -50.02473 38612 ft 525 kts 44°
2026-04-30 11:45 23.02531 -49.96089 38754 ft 531 kts 50°
2026-04-30 11:46 23.06670 -49.89448 38860 ft 532 kts 50°
2026-04-30 11:46 23.10834 -49.82802 38950 ft 532 kts 50°
2026-04-30 11:47 23.15029 -49.76124 38952 ft 531 kts 50°
2026-04-30 11:47 23.19193 -49.69492 38953 ft 531 kts 50°
2026-04-30 11:48 23.23364 -49.62838 38953 ft 533 kts 50°
2026-04-30 11:48 23.27534 -49.56180 38952 ft 532 kts 50°
2026-04-30 11:49 23.31665 -49.49571 38945 ft 532 kts 50°
2026-04-30 11:49 23.35821 -49.42916 38970 ft 531 kts 50°
2026-04-30 11:50 23.39998 -49.36219 38968 ft 531 kts 50°
2026-04-30 11:50 23.44114 -49.29602 38967 ft 531 kts 50°
2026-04-30 11:51 23.48280 -49.22896 38967 ft 531 kts 50°
2026-04-30 11:51 23.52396 -49.16265 38967 ft 531 kts 50°
2026-04-30 11:52 23.56559 -49.09555 38967 ft 531 kts 50°
2026-04-30 11:52 23.60669 -49.02923 38969 ft 532 kts 51°
2026-04-30 11:53 23.64803 -48.96236 38971 ft 532 kts 51°
2026-04-30 11:53 23.68934 -48.89545 38971 ft 532 kts 51°
2026-04-30 11:54 23.73065 -48.82851 38975 ft 532 kts 51°
2026-04-30 11:54 23.77188 -48.76160 38976 ft 531 kts 51°
2026-04-30 11:55 23.81311 -48.69455 38969 ft 531 kts 51°
2026-04-30 11:55 23.85426 -48.62754 38968 ft 531 kts 51°
2026-04-30 11:56 23.88872 -48.57138 38971 ft 531 kts 51°
2026-04-30 11:56 23.92955 -48.50477 38971 ft 531 kts 51°
2026-04-30 11:57 23.97095 -48.43717 38975 ft 531 kts 51°
2026-04-30 11:57 24.01196 -48.37006 38977 ft 531 kts 51°
2026-04-30 11:58 24.05292 -48.30292 38973 ft 530 kts 51°
2026-04-30 11:58 24.09386 -48.23575 38970 ft 530 kts 51°
2026-04-30 11:59 24.13474 -48.16856 38969 ft 530 kts 51°
2026-04-30 11:59 24.17561 -48.10131 38963 ft 530 kts 51°
2026-04-30 12:00 24.21647 -48.03402 38960 ft 530 kts 51°
2026-04-30 12:00 24.25727 -47.96673 38961 ft 530 kts 51°
2026-04-30 12:01 24.29807 -47.89934 38960 ft 530 kts 51°
2026-04-30 12:01 24.33880 -47.83192 38964 ft 530 kts 51°
2026-04-30 12:02 24.37953 -47.76448 38964 ft 530 kts 51°
2026-04-30 12:02 24.42019 -47.69704 38962 ft 530 kts 51°
2026-04-30 12:03 24.48110 -47.59582 38969 ft 529 kts 51°
2026-04-30 12:04 24.52160 -47.52839 38965 ft 529 kts 51°
2026-04-30 12:04 24.56208 -47.46093 38963 ft 528 kts 51°
2026-04-30 12:05 24.60246 -47.39353 38965 ft 528 kts 52°
2026-04-30 12:05 24.64279 -47.32615 38962 ft 528 kts 52°
2026-04-30 12:06 24.68308 -47.25870 38959 ft 527 kts 52°
2026-04-30 12:06 24.72335 -47.19126 38960 ft 527 kts 52°
2026-04-30 12:07 24.76356 -47.12374 38961 ft 527 kts 52°
2026-04-30 12:07 24.80264 -47.05804 38961 ft 527 kts 52°
2026-04-30 12:08 24.84276 -46.99055 38960 ft 527 kts 52°
2026-04-30 12:08 24.88311 -46.92256 38959 ft 527 kts 52°
2026-04-30 12:09 24.92317 -46.85496 38960 ft 527 kts 52°
2026-04-30 12:09 24.96291 -46.78777 38963 ft 526 kts 52°
2026-04-30 12:10 25.00310 -46.71972 38961 ft 526 kts 52°
2026-04-30 12:10 25.04297 -46.65210 38960 ft 526 kts 52°
2026-04-30 12:11 25.08289 -46.58435 38961 ft 526 kts 52°
2026-04-30 12:11 25.12275 -46.51660 38959 ft 526 kts 52°
2026-04-30 12:12 25.16254 -46.44886 38959 ft 526 kts 52°
2026-04-30 12:12 25.20234 -46.38106 38960 ft 526 kts 52°
2026-04-30 12:13 25.24208 -46.31322 38959 ft 526 kts 52°
2026-04-30 12:13 25.28179 -46.24534 38961 ft 526 kts 52°
2026-04-30 12:14 25.32172 -46.17696 38967 ft 526 kts 52°
2026-04-30 12:14 25.36105 -46.10953 38966 ft 525 kts 52°
2026-04-30 12:15 25.40061 -46.04161 38963 ft 525 kts 52°
2026-04-30 12:15 25.44009 -45.97371 38962 ft 525 kts 52°
2026-04-30 12:16 25.47959 -45.90569 38956 ft 525 kts 52°
2026-04-30 12:16 25.51914 -45.83752 38960 ft 525 kts 52°
2026-04-30 12:17 25.57812 -45.73561 38966 ft 525 kts 52°
2026-04-30 12:17 25.61677 -45.66863 38962 ft 509 kts 53°
2026-04-30 12:18 25.65372 -45.60465 38963 ft 511 kts 53°
2026-04-30 12:18 25.69369 -45.53540 38962 ft 513 kts 53°
2026-04-30 12:19 25.73210 -45.46868 38962 ft 513 kts 53°
2026-04-30 12:19 25.77045 -45.40190 38961 ft 514 kts 53°
2026-04-30 12:20 25.80882 -45.33500 38963 ft 514 kts 53°
2026-04-30 12:20 25.84740 -45.26762 38958 ft 514 kts 53°
2026-04-30 12:21 25.88572 -45.20061 38959 ft 514 kts 53°
2026-04-30 12:21 25.92399 -45.13364 38955 ft 514 kts 53°
2026-04-30 12:22 25.96233 -45.06650 38957 ft 514 kts 53°
2026-04-30 12:22 26.00059 -44.99937 38955 ft 514 kts 53°
2026-04-30 12:23 26.04045 -44.93365 38968 ft 511 kts 49°
2026-04-30 12:23 26.08201 -44.86888 38964 ft 511 kts 49°
2026-04-30 12:24 26.12323 -44.80438 38961 ft 511 kts 49°
2026-04-30 12:24 26.16421 -44.73973 38967 ft 511 kts 49°
2026-04-30 12:25 26.19817 -44.68595 38963 ft 511 kts 49°
2026-04-30 12:25 26.23898 -44.62120 38961 ft 511 kts 49°
2026-04-30 12:26 26.27983 -44.55626 38963 ft 511 kts 49°
2026-04-30 12:26 26.32091 -44.49085 38959 ft 512 kts 49°
2026-04-30 12:27 26.36252 -44.42459 38963 ft 512 kts 49°
2026-04-30 12:27 26.40340 -44.35939 38962 ft 512 kts 49°
2026-04-30 12:28 26.44414 -44.29422 38964 ft 512 kts 49°
2026-04-30 12:28 26.48482 -44.22899 38961 ft 512 kts 49°
2026-04-30 12:29 26.52502 -44.16452 38958 ft 512 kts 49°
2026-04-30 12:29 26.56633 -44.09822 38963 ft 513 kts 49°
2026-04-30 12:30 26.61078 -44.02673 38959 ft 513 kts 49°
2026-04-30 12:30 26.64796 -43.96686 38957 ft 513 kts 49°
2026-04-30 12:31 26.68905 -43.90055 38954 ft 513 kts 49°
2026-04-30 12:31 26.72968 -43.83486 38953 ft 514 kts 49°
2026-04-30 12:32 26.77035 -43.76905 38954 ft 514 kts 49°
2026-04-30 12:32 26.81074 -43.70361 38954 ft 514 kts 49°
2026-04-30 12:33 26.85151 -43.63745 38954 ft 514 kts 49°
2026-04-30 12:33 26.89209 -43.57151 38951 ft 514 kts 49°
2026-04-30 12:34 26.93287 -43.50506 38951 ft 514 kts 49°
2026-04-30 12:34 26.97341 -43.43901 38953 ft 514 kts 49°
2026-04-30 12:35 27.01389 -43.37293 38952 ft 514 kts 49°
2026-04-30 12:35 27.05439 -43.30670 38953 ft 514 kts 49°
2026-04-30 12:36 27.09484 -43.24051 38948 ft 514 kts 50°
2026-04-30 12:36 27.13505 -43.17459 38949 ft 515 kts 50°
2026-04-30 12:37 27.17583 -43.10760 38950 ft 515 kts 50°
2026-04-30 12:37 27.21627 -43.04108 38954 ft 516 kts 50°
2026-04-30 12:38 27.25697 -42.97404 38954 ft 516 kts 50°
2026-04-30 12:38 27.29741 -42.90731 38956 ft 516 kts 50°
2026-04-30 12:39 27.33784 -42.84053 38956 ft 516 kts 50°
2026-04-30 12:39 27.37822 -42.77371 38957 ft 516 kts 50°
2026-04-30 12:40 27.41857 -42.70684 38954 ft 517 kts 50°
2026-04-30 12:40 27.45892 -42.63985 38973 ft 516 kts 50°
2026-04-30 12:41 27.49942 -42.57251 39033 ft 515 kts 50°
2026-04-30 12:41 27.53937 -42.50596 39034 ft 516 kts 50°
2026-04-30 12:42 27.57990 -42.43839 39036 ft 517 kts 50°
2026-04-30 12:42 27.62020 -42.37114 39042 ft 518 kts 50°
2026-04-30 12:43 27.66051 -42.30375 39039 ft 518 kts 50°
2026-04-30 12:43 27.70079 -42.23623 39035 ft 518 kts 50°
2026-04-30 12:44 27.73456 -42.17961 39044 ft 519 kts 50°
2026-04-30 12:44 27.77476 -42.11196 39039 ft 519 kts 50°
2026-04-30 12:45 27.81501 -42.04422 39037 ft 519 kts 50°
2026-04-30 12:45 27.85519 -41.97649 39029 ft 519 kts 50°
2026-04-30 12:46 27.89533 -41.90869 39011 ft 519 kts 50°
2026-04-30 12:46 27.93547 -41.84081 39012 ft 519 kts 50°
2026-04-30 12:47 27.97557 -41.77296 39017 ft 519 kts 50°
2026-04-30 12:47 28.01592 -41.70450 39028 ft 519 kts 50°
2026-04-30 12:48 28.05594 -41.63644 39032 ft 519 kts 50°
2026-04-30 12:48 28.09599 -41.56831 39041 ft 519 kts 50°
2026-04-30 12:49 28.13605 -41.50011 39037 ft 520 kts 51°
2026-04-30 12:49 28.17607 -41.43184 39034 ft 520 kts 51°
2026-04-30 12:50 28.21608 -41.36346 39011 ft 521 kts 51°
2026-04-30 12:50 28.25606 -41.29500 39009 ft 521 kts 51°
2026-04-30 12:51 28.29607 -41.22636 39002 ft 522 kts 51°
2026-04-30 12:51 28.33581 -41.15811 39001 ft 522 kts 51°
2026-04-30 12:52 28.37604 -41.08888 39012 ft 522 kts 51°
2026-04-30 12:52 28.41599 -41.02002 39014 ft 522 kts 51°
2026-04-30 12:53 28.45593 -40.95110 39037 ft 522 kts 52°
2026-04-30 12:53 28.49581 -40.88211 39036 ft 522 kts 52°
2026-04-30 12:54 28.53304 -40.81773 39030 ft 522 kts 52°
2026-04-30 12:54 28.57561 -40.74395 39034 ft 522 kts 52°
2026-04-30 12:55 28.61536 -40.67473 39030 ft 522 kts 52°
2026-04-30 12:55 28.65515 -40.60545 39007 ft 523 kts 52°
2026-04-30 12:56 28.69494 -40.53614 39008 ft 523 kts 52°
2026-04-30 12:56 28.73472 -40.46669 39005 ft 524 kts 52°
2026-04-30 12:57 28.77447 -40.39713 39004 ft 524 kts 52°
2026-04-30 12:57 28.81471 -40.32659 39015 ft 523 kts 52°
2026-04-30 12:58 28.85446 -40.25682 39013 ft 524 kts 52°
2026-04-30 12:58 28.89406 -40.18719 39013 ft 524 kts 52°
2026-04-30 12:59 28.93402 -40.11691 39002 ft 525 kts 52°
2026-04-30 12:59 28.97374 -40.04690 38999 ft 525 kts 52°
2026-04-30 13:00 29.01398 -39.97655 39013 ft 524 kts 50°
2026-04-30 13:00 29.05803 -39.91055 39012 ft 521 kts 46°
2026-04-30 13:01 29.10199 -39.84742 39015 ft 522 kts 46°
2026-04-30 13:01 29.14791 -39.78047 39003 ft 523 kts 46°
2026-04-30 13:02 29.19278 -39.71434 38999 ft 524 kts 47°
2026-04-30 13:02 29.23777 -39.64783 39008 ft 525 kts 47°
2026-04-30 13:03 29.28246 -39.58162 39012 ft 526 kts 47°
2026-04-30 13:03 29.32719 -39.51527 39008 ft 526 kts 47°
2026-04-30 13:04 29.37194 -39.44873 39025 ft 527 kts 47°
2026-04-30 13:04 29.41660 -39.38218 39026 ft 527 kts 47°
2026-04-30 13:05 29.46125 -39.31549 39009 ft 527 kts 47°
2026-04-30 13:06 29.52826 -39.21530 39001 ft 527 kts 47°
2026-04-30 13:06 29.57288 -39.14846 39008 ft 527 kts 47°
2026-04-30 13:07 29.61743 -39.08157 39009 ft 527 kts 47°
2026-04-30 13:07 29.66191 -39.01463 39006 ft 527 kts 47°
2026-04-30 13:08 29.70635 -38.94769 39000 ft 527 kts 47°
2026-04-30 13:08 29.75077 -38.88063 39005 ft 527 kts 47°
2026-04-30 13:09 29.79540 -38.81316 39001 ft 526 kts 47°
2026-04-30 13:09 29.83880 -38.74740 38997 ft 526 kts 47°
2026-04-30 13:10 29.88400 -38.67883 39006 ft 526 kts 48°
2026-04-30 13:10 29.91959 -38.62482 38999 ft 526 kts 48°
2026-04-30 13:11 29.96532 -38.55527 39000 ft 526 kts 48°
2026-04-30 13:11 30.00986 -38.48738 38998 ft 527 kts 48°
2026-04-30 13:12 30.05408 -38.41991 38982 ft 528 kts 48°
2026-04-30 13:12 30.09833 -38.35225 38982 ft 528 kts 49°
2026-04-30 13:13 30.16466 -38.25053 38989 ft 528 kts 49°
2026-04-30 13:14 30.23091 -38.14868 38989 ft 528 kts 49°
2026-04-30 13:14 30.29681 -38.04713 38990 ft 528 kts 49°
2026-04-30 13:15 30.36292 -37.94497 38996 ft 528 kts 49°
2026-04-30 13:16 30.40693 -37.87680 38985 ft 529 kts 49°
2026-04-30 13:16 30.45093 -37.80856 38993 ft 529 kts 49°
2026-04-30 13:17 30.51695 -37.70594 38988 ft 529 kts 49°
2026-04-30 13:18 30.58346 -37.60226 38993 ft 530 kts 49°
2026-04-30 13:18 30.64566 -37.50514 39003 ft 530 kts 49°
2026-04-30 13:19 30.69351 -37.43016 38995 ft 531 kts 49°
2026-04-30 13:19 30.73753 -37.36111 39005 ft 532 kts 49°
2026-04-30 13:20 30.78184 -37.29147 38994 ft 532 kts 49°
2026-04-30 13:20 30.82525 -37.22315 38988 ft 533 kts 50°
2026-04-30 13:21 30.86993 -37.15275 38993 ft 533 kts 50°
2026-04-30 13:22 30.93628 -37.04789 38984 ft 534 kts 50°
2026-04-30 13:22 31.00238 -36.94327 38995 ft 535 kts 50°
2026-04-30 13:23 31.06858 -36.83786 38994 ft 535 kts 50°
2026-04-30 13:24 31.15667 -36.69747 38990 ft 536 kts 50°
2026-04-30 13:25 31.24458 -36.55683 38994 ft 536 kts 50°
2026-04-30 13:26 31.35484 -36.37976 38981 ft 537 kts 50°
2026-04-30 13:28 31.46597 -36.20053 38977 ft 539 kts 50°
2026-04-30 13:28 31.53196 -36.09365 38978 ft 540 kts 50°
2026-04-30 13:29 31.61990 -35.95076 38983 ft 540 kts 50°
2026-04-30 13:31 31.72160 -35.78485 38982 ft 540 kts 50°
2026-04-30 13:32 31.82788 -35.61080 38985 ft 540 kts 50°
2026-04-30 13:33 31.91527 -35.46691 38979 ft 539 kts 50°
2026-04-30 13:34 31.98096 -35.35849 38989 ft 538 kts 50°
2026-04-30 13:35 32.06710 -35.21583 38982 ft 538 kts 50°
2026-04-30 13:36 32.15448 -35.07055 38981 ft 537 kts 50°
2026-04-30 13:36 32.21884 -34.96324 38984 ft 536 kts 50°
2026-04-30 13:37 32.28383 -34.85448 38975 ft 535 kts 50°
2026-04-30 13:38 32.34802 -34.74679 38977 ft 533 kts 50°
2026-04-30 13:39 32.43328 -34.60332 38974 ft 532 kts 50°
2026-04-30 13:40 32.49698 -34.49587 38972 ft 530 kts 50°
2026-04-30 13:40 32.53925 -34.42427 38967 ft 530 kts 50°
2026-04-30 13:41 32.58146 -34.35266 38965 ft 530 kts 50°
2026-04-30 13:41 32.62389 -34.28059 38965 ft 529 kts 50°
2026-04-30 13:42 32.66600 -34.20892 38968 ft 529 kts 50°
2026-04-30 13:42 32.72872 -34.10192 38962 ft 529 kts 50°
2026-04-30 13:43 32.77076 -34.03009 38953 ft 530 kts 50°
2026-04-30 13:43 32.81279 -33.95806 38955 ft 530 kts 50°
2026-04-30 13:44 32.85469 -33.88603 38964 ft 530 kts 50°
2026-04-30 13:44 32.89661 -33.81397 38962 ft 529 kts 50°
2026-04-30 13:45 32.95936 -33.70579 38957 ft 530 kts 50°
2026-04-30 13:46 33.00118 -33.63355 38959 ft 530 kts 50°
2026-04-30 13:46 33.04323 -33.56074 38959 ft 530 kts 50°
2026-04-30 13:47 33.08189 -33.49366 38960 ft 530 kts 50°
2026-04-30 13:47 33.12658 -33.41592 38961 ft 530 kts 50°
2026-04-30 13:48 33.16866 -33.34259 38958 ft 530 kts 50°
2026-04-30 13:48 33.21038 -33.26979 38957 ft 531 kts 50°
2026-04-30 13:49 33.24830 -33.20350 38953 ft 531 kts 50°
2026-04-30 13:49 33.28990 -33.13062 38951 ft 531 kts 50°
2026-04-30 13:50 33.32478 -33.06942 38951 ft 531 kts 50°
2026-04-30 13:50 33.39335 -32.94878 38952 ft 531 kts 50°
2026-04-30 13:51 33.43512 -32.87515 38952 ft 531 kts 50°
2026-04-30 13:51 33.46932 -32.81476 38953 ft 531 kts 50°
2026-04-30 13:52 33.51130 -32.74038 38952 ft 531 kts 50°
2026-04-30 13:52 33.55211 -32.66794 38958 ft 531 kts 50°
2026-04-30 13:53 33.59162 -32.59769 38957 ft 531 kts 50°
2026-04-30 13:53 33.63286 -32.52425 38956 ft 531 kts 50°
2026-04-30 13:54 33.67439 -32.45020 38953 ft 531 kts 50°
2026-04-30 13:54 33.71724 -32.37355 38948 ft 532 kts 50°
2026-04-30 13:55 33.75868 -32.29924 38949 ft 531 kts 50°
2026-04-30 13:55 33.79976 -32.22543 38948 ft 531 kts 50°
2026-04-30 13:56 33.84078 -32.15154 38944 ft 531 kts 50°
2026-04-30 13:56 33.88126 -32.07860 38944 ft 531 kts 50°
2026-04-30 13:57 33.92303 -32.00315 38945 ft 531 kts 51°
2026-04-30 13:57 33.96158 -31.93338 38943 ft 531 kts 50°
2026-04-30 13:58 34.01861 -31.82987 38944 ft 531 kts 51°
2026-04-30 13:59 34.06410 -31.74712 38893 ft 532 kts 51°
2026-04-30 13:59 34.10493 -31.67272 38893 ft 532 kts 51°
2026-04-30 14:00 34.14572 -31.59824 38891 ft 531 kts 51°
2026-04-30 14:00 34.20638 -31.48703 38893 ft 531 kts 51°
2026-04-30 14:01 34.24722 -31.41200 38893 ft 530 kts 51°
2026-04-30 14:01 34.28771 -31.33752 38889 ft 529 kts 51°
2026-04-30 14:02 34.32803 -31.26313 38890 ft 529 kts 51°
2026-04-30 14:02 34.36778 -31.18962 38881 ft 529 kts 51°
2026-04-30 14:03 34.40859 -31.11411 38880 ft 528 kts 51°
2026-04-30 14:03 34.44896 -31.03919 38874 ft 528 kts 51°
2026-04-30 14:04 34.48897 -30.96477 38875 ft 527 kts 51°
2026-04-30 14:04 34.52809 -30.89185 38866 ft 526 kts 51°
2026-04-30 14:05 34.56232 -30.82794 38875 ft 526 kts 51°
2026-04-30 14:05 34.60886 -30.74086 38862 ft 525 kts 51°
2026-04-30 14:06 34.66225 -30.64071 38862 ft 525 kts 52°
2026-04-30 14:07 34.72172 -30.52880 38864 ft 525 kts 52°
2026-04-30 14:08 34.78049 -30.41788 38885 ft 524 kts 52°
2026-04-30 14:08 34.84156 -30.30245 38885 ft 524 kts 52°
2026-04-30 14:09 34.87877 -30.23190 38884 ft 524 kts 52°
2026-04-30 14:10 34.93778 -30.11975 38875 ft 524 kts 52°
2026-04-30 14:10 34.97707 -30.04485 38875 ft 524 kts 52°
2026-04-30 14:11 35.01619 -29.96970 38876 ft 524 kts 51°
2026-04-30 14:11 35.05731 -29.89657 38875 ft 522 kts 49°
2026-04-30 14:12 35.09905 -29.82414 38871 ft 521 kts 49°
2026-04-30 14:12 35.14048 -29.75143 38876 ft 522 kts 50°
2026-04-30 14:13 35.18172 -29.67836 38876 ft 522 kts 50°
2026-04-30 14:13 35.22285 -29.60527 38878 ft 522 kts 50°
2026-04-30 14:14 35.26399 -29.53204 38877 ft 522 kts 50°
2026-04-30 14:14 35.30536 -29.45827 38879 ft 522 kts 50°
2026-04-30 14:15 35.34631 -29.38502 38875 ft 522 kts 50°
2026-04-30 14:15 35.38759 -29.31102 38875 ft 522 kts 50°
2026-04-30 14:16 35.42860 -29.23741 38872 ft 523 kts 50°
2026-04-30 14:16 35.46958 -29.16368 38878 ft 523 kts 50°
2026-04-30 14:17 35.50911 -29.09239 38880 ft 523 kts 50°
2026-04-30 14:17 35.54565 -29.02633 38880 ft 523 kts 50°
2026-04-30 14:18 35.58653 -28.95238 38878 ft 523 kts 50°
2026-04-30 14:18 35.64060 -28.85425 38880 ft 523 kts 50°
2026-04-30 14:19 35.70272 -28.74110 38879 ft 523 kts 51°
2026-04-30 14:20 35.74345 -28.66680 38875 ft 524 kts 51°
2026-04-30 14:20 35.80471 -28.55470 38870 ft 523 kts 51°
2026-04-30 14:21 35.84529 -28.48024 38871 ft 523 kts 51°
2026-04-30 14:22 35.90602 -28.36841 38873 ft 523 kts 51°
2026-04-30 14:22 35.96611 -28.25744 38876 ft 523 kts 52°
2026-04-30 14:23 36.04735 -28.10684 38864 ft 523 kts 52°
2026-04-30 14:24 36.10846 -27.99302 38872 ft 522 kts 52°
2026-04-30 14:25 36.18873 -27.84294 38856 ft 522 kts 52°
2026-04-30 14:26 36.24941 -27.72911 38858 ft 522 kts 52°
2026-04-30 14:27 36.31162 -27.61864 38858 ft 517 kts 45°
2026-04-30 14:27 36.35823 -27.55071 38861 ft 516 kts 44°
2026-04-30 14:28 36.42941 -27.44784 38856 ft 517 kts 44°
2026-04-30 14:28 36.47046 -27.38821 38853 ft 517 kts 44°
2026-04-30 14:29 36.56203 -27.25466 38855 ft 517 kts 45°
2026-04-30 14:31 36.68628 -27.07228 38852 ft 517 kts 45°
2026-04-30 14:31 36.75605 -26.96945 38859 ft 518 kts 45°
2026-04-30 14:32 36.82544 -26.86677 38854 ft 518 kts 45°
2026-04-30 14:33 36.87179 -26.79806 38858 ft 518 kts 45°
2026-04-30 14:33 36.94131 -26.69464 38857 ft 518 kts 45°
2026-04-30 14:34 36.98762 -26.62558 38859 ft 518 kts 45°
2026-04-30 14:34 37.03383 -26.55654 38865 ft 518 kts 45°
2026-04-30 14:35 37.10374 -26.45182 38871 ft 517 kts 46°
2026-04-30 14:36 37.14985 -26.38256 38871 ft 517 kts 46°
2026-04-30 14:36 37.18844 -26.32449 38874 ft 517 kts 46°
2026-04-30 14:37 37.23478 -26.25462 38868 ft 517 kts 46°
2026-04-30 14:37 37.28097 -26.18469 38869 ft 516 kts 46°
2026-04-30 14:38 37.32684 -26.11530 38858 ft 516 kts 46°
2026-04-30 14:38 37.37291 -26.04543 38859 ft 515 kts 46°
2026-04-30 14:39 37.41208 -25.98588 38855 ft 515 kts 46°
2026-04-30 14:39 37.46478 -25.90557 38854 ft 515 kts 46°
2026-04-30 14:40 37.53379 -25.80012 38854 ft 515 kts 46°
2026-04-30 14:40 37.57650 -25.73466 38850 ft 515 kts 46°
2026-04-30 14:41 37.62411 -25.66152 38855 ft 515 kts 46°
2026-04-30 14:41 37.66505 -25.59852 38855 ft 515 kts 47°
2026-04-30 14:42 37.70352 -25.53918 38854 ft 515 kts 47°
2026-04-30 14:42 37.75847 -25.45424 38855 ft 516 kts 47°
2026-04-30 14:43 37.80417 -25.38348 38862 ft 515 kts 47°
2026-04-30 14:43 37.84954 -25.31306 38850 ft 516 kts 47°
2026-04-30 14:44 37.89490 -25.24249 38853 ft 517 kts 47°
2026-04-30 14:44 37.94027 -25.17178 38854 ft 517 kts 47°
2026-04-30 14:45 37.98599 -25.10039 38856 ft 518 kts 47°
2026-04-30 14:45 38.03075 -25.03028 38865 ft 518 kts 48°
2026-04-30 14:46 38.07641 -24.95871 38864 ft 513 kts 48°
2026-04-30 14:46 38.11351 -24.90044 38860 ft 515 kts 48°
2026-04-30 14:47 38.15903 -24.82876 38860 ft 515 kts 49°
2026-04-30 14:47 38.20237 -24.76029 38859 ft 516 kts 49°
2026-04-30 14:48 38.24923 -24.68608 38862 ft 516 kts 49°
2026-04-30 14:48 38.29422 -24.61473 38859 ft 517 kts 49°
2026-04-30 14:49 38.33907 -24.54347 38856 ft 517 kts 49°
2026-04-30 14:49 38.38418 -24.47160 38860 ft 517 kts 49°
2026-04-30 14:50 38.45157 -24.36385 38860 ft 518 kts 49°
2026-04-30 14:51 38.51921 -24.25546 38862 ft 518 kts 49°
2026-04-30 14:52 38.58292 -24.15308 38862 ft 518 kts 49°
2026-04-30 14:52 38.65369 -24.03890 38865 ft 518 kts 50°
2026-04-30 14:53 38.72089 -23.93012 38869 ft 517 kts 50°
2026-04-30 14:54 38.81094 -23.78373 38871 ft 517 kts 50°
2026-04-30 14:55 38.87814 -23.67413 38885 ft 516 kts 50°
2026-04-30 14:56 38.96691 -23.52874 38886 ft 514 kts 51°
2026-04-30 14:57 39.03299 -23.42007 38885 ft 513 kts 51°
2026-04-30 14:58 39.12081 -23.27504 38877 ft 511 kts 51°
2026-04-30 14:58 39.18623 -23.16656 38882 ft 510 kts 51°
2026-04-30 15:00 39.29485 -22.98567 38884 ft 510 kts 52°
2026-04-30 15:01 39.38137 -22.84076 38881 ft 509 kts 52°
2026-04-30 15:01 39.44607 -22.73196 38893 ft 508 kts 52°
2026-04-30 15:02 39.48908 -22.65947 38892 ft 508 kts 52°
2026-04-30 15:03 39.59655 -22.47768 38899 ft 506 kts 53°
2026-04-30 15:04 39.69592 -22.30854 38904 ft 504 kts 53°
2026-04-30 15:06 39.80172 -22.12752 38900 ft 502 kts 53°
2026-04-30 15:07 39.88612 -21.98224 38909 ft 501 kts 54°
2026-04-30 15:08 39.96996 -21.83734 38915 ft 500 kts 54°
2026-04-30 15:09 40.06866 -21.66593 38910 ft 500 kts 54°
2026-04-30 15:10 40.15255 -21.51946 38940 ft 499 kts 54°
2026-04-30 15:11 40.27671 -21.30144 38932 ft 498 kts 54°
2026-04-30 15:13 40.37921 -21.12025 38943 ft 497 kts 54°
2026-04-30 15:14 40.52352 -20.86356 38947 ft 495 kts 55°
2026-04-30 15:17 40.70709 -20.53384 38951 ft 495 kts 55°
2026-04-30 15:19 40.86896 -20.24030 38970 ft 494 kts 55°